User: anonymous   Login
Location: Ebersheim
(48.3033°N, 7.4991°E)
Time: 17:34:54
(UTC+00:00)
Language:

STARLINK-78 - Orbit

View from above orbital plane
View from above orbital plane
View from above satellite
View from above satellite

Ground track
Ground track

The orbit data is extracted from the following two-line orbital elements,

1 44290C 19029BH  20152.45573243  .00880346  00000-0  34571-1 0  1524
2 44290  53.0057 287.7315 0001434 106.0646 190.0894 15.24295110    11
Epoch (UTC): 31 May 2020 10:56:15
Eccentricity: 0.0001434
inclination: 53.0057°
perigee height: 492 km
apogee height: 494 km
right ascension of ascending node: 287.7315°
argument of perigee: 106.0646°
revolutions per day: 15.24295110
mean anomaly at epoch: 190.0894°
orbit number at epoch: 1

The dashed part of the orbit path shows where the satellite is in the earth's shadow,  

DLR